OAL2KP LGAV-LGKP

Flight info

Callsign OAL2KP
Flight time 0h 52m
Altitude 23000
Route KEA N132 KUPIS N134 MASES DCT KPC
Aircraft DH8D/M-SDE2E3FGRY/H

Departure

Time 2026-05-04 12:51
Airport Athens Eleftherios Venizelos International Airport (LGAV)

Arrival

Time 2026-05-04 13:43
Airport Karpathos Airport (LGKP)
Time Latitude Longitude Altitude Speed Heading
2026-05-04 12:25 37.94331 23.95381 292 ft 0 kts 37°
2026-05-04 12:46 37.94342 23.95392 291 ft 5 kts 37°
2026-05-04 12:46 37.94362 23.95446 291 ft 12 kts 122°
2026-05-04 12:47 37.94291 23.95565 287 ft 20 kts 127°
2026-05-04 12:47 37.94207 23.95659 284 ft 15 kts 185°
2026-05-04 12:47 37.94110 23.95609 283 ft 15 kts 163°
2026-05-04 12:47 37.94009 23.95622 280 ft 16 kts 216°
2026-05-04 12:48 37.93877 23.95497 278 ft 30 kts 218°
2026-05-04 12:48 37.93711 23.95339 280 ft 26 kts 217°
2026-05-04 12:48 37.93577 23.95210 282 ft 22 kts 217°
2026-05-04 12:48 37.93438 23.95079 287 ft 25 kts 217°
2026-05-04 12:49 37.93302 23.94950 288 ft 21 kts 217°
2026-05-04 12:49 37.93198 23.94850 287 ft 16 kts 208°
2026-05-04 12:49 37.93132 23.94916 283 ft 14 kts 69°
2026-05-04 12:49 37.93161 23.95023 282 ft 12 kts 96°
2026-05-04 12:50 37.93148 23.95083 280 ft 3 kts 40°
2026-05-04 12:50 37.93290 23.95215 277 ft 66 kts 36°
2026-05-04 12:50 37.93877 23.95775 283 ft 135 kts 38°
2026-05-04 12:50 37.94620 23.96532 787 ft 136 kts 39°
2026-05-04 12:51 37.95301 23.97276 1488 ft 128 kts 38°
2026-05-04 12:51 37.95964 23.97968 2118 ft 125 kts 36°
2026-05-04 12:51 37.96635 23.98648 2688 ft 125 kts 35°
2026-05-04 12:51 37.97325 23.99336 3195 ft 127 kts 34°
2026-05-04 12:52 37.98015 24.00012 3660 ft 129 kts 33°
2026-05-04 12:52 37.98739 24.00712 4061 ft 139 kts 32°
2026-05-04 12:52 37.99576 24.01506 4355 ft 161 kts 32°
2026-05-04 12:52 38.00536 24.02411 4626 ft 185 kts 34°
2026-05-04 12:53 38.01360 24.03799 4890 ft 216 kts 69°
2026-05-04 12:53 38.01190 24.05729 5303 ft 236 kts 116°
2026-05-04 12:53 38.00113 24.07329 5790 ft 243 kts 134°
2026-05-04 12:53 37.98956 24.08868 6417 ft 243 kts 131°
2026-05-04 12:54 37.97782 24.10450 6961 ft 248 kts 131°
2026-05-04 12:54 37.96589 24.12021 7512 ft 252 kts 132°
2026-05-04 12:54 37.95368 24.13604 8129 ft 252 kts 132°
2026-05-04 12:54 37.94118 24.15208 8655 ft 257 kts 132°
2026-05-04 12:55 37.92860 24.16809 9247 ft 258 kts 132°
2026-05-04 12:55 37.91598 24.18405 9798 ft 261 kts 132°
2026-05-04 12:55 37.90307 24.20031 10358 ft 263 kts 132°
2026-05-04 12:55 37.89007 24.21663 10907 ft 264 kts 132°
2026-05-04 12:56 37.87683 24.23319 11436 ft 267 kts 131°
2026-05-04 12:56 37.86368 24.24962 11945 ft 269 kts 131°
2026-05-04 12:56 37.85040 24.26619 12432 ft 271 kts 131°
2026-05-04 12:56 37.83690 24.28299 12943 ft 273 kts 131°
2026-05-04 12:57 37.82330 24.29993 13252 ft 282 kts 131°
2026-05-04 12:57 37.80901 24.31774 13513 ft 292 kts 131°
2026-05-04 12:57 37.79442 24.33587 13788 ft 300 kts 131°
2026-05-04 12:57 37.77929 24.35465 14058 ft 307 kts 132°
2026-05-04 12:58 37.76392 24.37371 14311 ft 313 kts 132°
2026-05-04 12:58 37.74835 24.39298 14556 ft 318 kts 132°
2026-05-04 12:58 37.73320 24.41165 15652 ft 290 kts 132°
2026-05-04 12:58 37.71907 24.42905 16372 ft 279 kts 133°
2026-05-04 12:59 37.70545 24.44588 16851 ft 277 kts 133°
2026-05-04 12:59 37.69159 24.46301 17165 ft 281 kts 133°
2026-05-04 12:59 37.67754 24.48037 17547 ft 283 kts 133°
2026-05-04 12:59 37.66354 24.49766 17890 ft 285 kts 133°
2026-05-04 13:00 37.64929 24.51523 18303 ft 284 kts 133°
2026-05-04 13:00 37.63515 24.53266 18639 ft 286 kts 133°
2026-05-04 13:00 37.62113 24.54993 19005 ft 287 kts 133°
2026-05-04 13:00 37.60683 24.56753 19328 ft 288 kts 133°
2026-05-04 13:01 37.59240 24.58528 19654 ft 289 kts 133°
2026-05-04 13:01 37.57791 24.60310 19934 ft 292 kts 132°
2026-05-04 13:01 37.56338 24.62094 20313 ft 291 kts 133°
2026-05-04 13:01 37.54891 24.63872 20673 ft 288 kts 133°
2026-05-04 13:02 37.53466 24.65620 21057 ft 285 kts 133°
2026-05-04 13:02 37.52069 24.67333 21399 ft 282 kts 133°
2026-05-04 13:02 37.50669 24.69048 21737 ft 279 kts 133°
2026-05-04 13:02 37.49293 24.70734 22054 ft 277 kts 132°
2026-05-04 13:03 37.47917 24.72418 22326 ft 276 kts 132°
2026-05-04 13:03 37.46536 24.74110 22505 ft 278 kts 132°
2026-05-04 13:03 37.45136 24.75823 22700 ft 280 kts 132°
2026-05-04 13:03 37.43736 24.77535 22895 ft 281 kts 133°
2026-05-04 13:04 37.42339 24.79243 23075 ft 283 kts 132°
2026-05-04 13:04 37.40916 24.80981 23132 ft 289 kts 133°
2026-05-04 13:04 37.39437 24.82790 23150 ft 298 kts 133°
2026-05-04 13:04 37.37942 24.84615 23149 ft 306 kts 133°
2026-05-04 13:05 37.36390 24.86508 23143 ft 314 kts 133°
2026-05-04 13:05 37.34821 24.88420 23150 ft 320 kts 134°
2026-05-04 13:05 37.33197 24.90398 23143 ft 326 kts 134°
2026-05-04 13:05 37.31569 24.92377 23139 ft 330 kts 133°
2026-05-04 13:06 37.29900 24.94406 23150 ft 334 kts 134°
2026-05-04 13:06 37.28224 24.96443 23143 ft 338 kts 134°
2026-05-04 13:06 37.26525 24.98506 23145 ft 340 kts 134°
2026-05-04 13:06 37.24824 25.00569 23139 ft 342 kts 134°
2026-05-04 13:07 37.23119 25.02636 23134 ft 344 kts 134°
2026-05-04 13:07 37.21378 25.04746 23137 ft 345 kts 134°
2026-05-04 13:07 37.19662 25.06823 23133 ft 346 kts 134°
2026-05-04 13:07 37.17928 25.08921 23133 ft 346 kts 134°
2026-05-04 13:08 37.16192 25.11021 23135 ft 347 kts 134°
2026-05-04 13:08 37.14462 25.13112 23130 ft 348 kts 134°
2026-05-04 13:08 37.12731 25.15201 23127 ft 347 kts 134°
2026-05-04 13:08 37.11027 25.17258 23126 ft 346 kts 134°
2026-05-04 13:09 37.09305 25.19335 23125 ft 344 kts 134°
2026-05-04 13:09 37.07576 25.21419 23125 ft 343 kts 134°
2026-05-04 13:09 37.05867 25.23479 23124 ft 343 kts 134°
2026-05-04 13:09 37.04155 25.25540 23126 ft 342 kts 134°
2026-05-04 13:10 37.02444 25.27599 23123 ft 342 kts 134°
2026-05-04 13:10 37.00730 25.29659 23124 ft 342 kts 134°
2026-05-04 13:10 36.99017 25.31718 23131 ft 341 kts 134°
2026-05-04 13:10 36.97298 25.33780 23126 ft 341 kts 134°
2026-05-04 13:11 36.95587 25.35833 23124 ft 341 kts 134°
2026-05-04 13:11 36.93896 25.37861 23119 ft 341 kts 134°
2026-05-04 13:11 36.92165 25.39936 23124 ft 341 kts 134°
2026-05-04 13:11 36.90469 25.41965 23128 ft 341 kts 134°
2026-05-04 13:12 36.88754 25.44018 23124 ft 341 kts 134°
2026-05-04 13:12 36.87028 25.46082 23117 ft 342 kts 134°
2026-05-04 13:12 36.85317 25.48127 23113 ft 342 kts 134°
2026-05-04 13:12 36.83609 25.50167 23118 ft 342 kts 134°
2026-05-04 13:13 36.81887 25.52222 23112 ft 343 kts 134°
2026-05-04 13:13 36.80154 25.54290 23111 ft 343 kts 134°
2026-05-04 13:13 36.78426 25.56350 23117 ft 343 kts 134°
2026-05-04 13:13 36.76703 25.58401 23113 ft 343 kts 134°
2026-05-04 13:14 36.74984 25.60448 23109 ft 344 kts 134°
2026-05-04 13:14 36.73251 25.62509 23107 ft 344 kts 134°
2026-05-04 13:14 36.71516 25.64571 23107 ft 344 kts 134°
2026-05-04 13:14 36.69786 25.66627 23111 ft 344 kts 135°
2026-05-04 13:15 36.68059 25.68677 23114 ft 344 kts 134°
2026-05-04 13:15 36.66336 25.70721 23116 ft 345 kts 135°
2026-05-04 13:15 36.64594 25.72786 23110 ft 345 kts 135°
2026-05-04 13:15 36.62858 25.74843 23107 ft 346 kts 135°
2026-05-04 13:16 36.61106 25.76918 23110 ft 346 kts 135°
2026-05-04 13:16 36.59360 25.78984 23107 ft 346 kts 135°
2026-05-04 13:16 36.57611 25.81053 23115 ft 347 kts 135°
2026-05-04 13:16 36.55883 25.83094 23107 ft 347 kts 135°
2026-05-04 13:17 36.54122 25.85174 23106 ft 348 kts 135°
2026-05-04 13:17 36.52358 25.87257 23100 ft 348 kts 135°
2026-05-04 13:17 36.50619 25.89307 23102 ft 348 kts 135°
2026-05-04 13:17 36.48863 25.91377 23101 ft 348 kts 135°
2026-05-04 13:18 36.47112 25.93439 23111 ft 347 kts 135°
2026-05-04 13:18 36.45352 25.95511 23114 ft 347 kts 135°
2026-05-04 13:18 36.43595 25.97578 23100 ft 348 kts 135°
2026-05-04 13:18 36.41849 25.99631 23103 ft 347 kts 135°
2026-05-04 13:19 36.40091 26.01696 23102 ft 347 kts 135°
2026-05-04 13:19 36.38353 26.03737 23104 ft 347 kts 135°
2026-05-04 13:19 36.36590 26.05805 23105 ft 347 kts 135°
2026-05-04 13:19 36.34830 26.07870 23097 ft 348 kts 135°
2026-05-04 13:20 36.33086 26.09913 23096 ft 348 kts 135°
2026-05-04 13:20 36.31321 26.11979 23102 ft 348 kts 135°
2026-05-04 13:20 36.29573 26.14025 23099 ft 348 kts 135°
2026-05-04 13:20 36.27817 26.16079 23093 ft 349 kts 135°
2026-05-04 13:21 36.26045 26.18150 23095 ft 349 kts 135°
2026-05-04 13:21 36.24285 26.20205 23093 ft 350 kts 135°
2026-05-04 13:21 36.22504 26.22284 23100 ft 350 kts 135°
2026-05-04 13:21 36.20725 26.24359 23104 ft 351 kts 135°
2026-05-04 13:22 36.18961 26.26415 23098 ft 351 kts 135°
2026-05-04 13:22 36.17174 26.28496 22677 ft 361 kts 135°
2026-05-04 13:22 36.15333 26.30643 22197 ft 358 kts 135°
2026-05-04 13:22 36.13518 26.32757 21806 ft 361 kts 135°
2026-05-04 13:23 36.11699 26.34873 21438 ft 361 kts 135°
2026-05-04 13:23 36.09860 26.37011 21082 ft 360 kts 135°
2026-05-04 13:23 36.08045 26.39119 20740 ft 361 kts 135°
2026-05-04 13:23 36.06207 26.41251 20390 ft 361 kts 135°
2026-05-04 13:24 36.04385 26.43364 20038 ft 363 kts 135°
2026-05-04 13:24 36.02554 26.45485 19690 ft 363 kts 135°
2026-05-04 13:24 36.00715 26.47615 19341 ft 364 kts 135°
2026-05-04 13:25 35.97010 26.51899 18639 ft 366 kts 135°
2026-05-04 13:25 35.95134 26.54066 18275 ft 369 kts 135°
2026-05-04 13:25 35.93270 26.56217 17921 ft 372 kts 135°
2026-05-04 13:25 35.91366 26.58414 17559 ft 373 kts 135°
2026-05-04 13:26 35.89485 26.60582 17193 ft 375 kts 135°
2026-05-04 13:26 35.87569 26.62789 16824 ft 376 kts 135°
2026-05-04 13:26 35.85652 26.64997 16457 ft 377 kts 135°
2026-05-04 13:26 35.83752 26.67183 16089 ft 376 kts 136°
2026-05-04 13:27 35.81823 26.69401 15720 ft 375 kts 136°
2026-05-04 13:27 35.79932 26.71575 15352 ft 373 kts 136°
2026-05-04 13:27 35.78050 26.73737 14989 ft 369 kts 136°
2026-05-04 13:27 35.76170 26.75895 14636 ft 367 kts 135°
2026-05-04 13:28 35.74334 26.78002 14274 ft 365 kts 136°
2026-05-04 13:28 35.72468 26.80141 13919 ft 363 kts 136°
2026-05-04 13:28 35.70645 26.82229 13572 ft 361 kts 136°
2026-05-04 13:28 35.68803 26.84339 13221 ft 359 kts 136°
2026-05-04 13:29 35.66987 26.86416 12872 ft 357 kts 136°
2026-05-04 13:29 35.65184 26.88478 12522 ft 355 kts 135°
2026-05-04 13:29 35.63358 26.90563 12177 ft 353 kts 136°
2026-05-04 13:29 35.61587 26.92586 11837 ft 352 kts 136°
2026-05-04 13:30 35.59796 26.94630 11499 ft 350 kts 136°
2026-05-04 13:30 35.57999 26.96678 11141 ft 349 kts 136°
2026-05-04 13:30 35.56242 26.98680 10810 ft 347 kts 136°
2026-05-04 13:30 35.54462 27.00707 10457 ft 345 kts 135°
2026-05-04 13:31 35.52713 27.02698 10134 ft 339 kts 136°
2026-05-04 13:31 35.51025 27.04624 9804 ft 322 kts 135°
2026-05-04 13:31 35.49443 27.06429 9495 ft 308 kts 135°
2026-05-04 13:31 35.47882 27.08202 9215 ft 305 kts 135°
2026-05-04 13:32 35.46315 27.09981 8923 ft 306 kts 135°
2026-05-04 13:32 35.44762 27.11742 8628 ft 306 kts 135°
2026-05-04 13:32 35.43275 27.13588 8232 ft 301 kts 124°
2026-05-04 13:32 35.42577 27.15871 7967 ft 274 kts 89°
2026-05-04 13:33 35.42654 27.18106 7726 ft 255 kts 79°
2026-05-04 13:33 35.42823 27.20218 7448 ft 244 kts 78°
2026-05-04 13:33 35.42997 27.22216 7204 ft 232 kts 77°
2026-05-04 13:33 35.43171 27.24141 6975 ft 218 kts 76°
2026-05-04 13:34 35.43335 27.25932 6766 ft 207 kts 76°
2026-05-04 13:34 35.43497 27.27693 6590 ft 215 kts 76°
2026-05-04 13:34 35.43676 27.29558 6376 ft 224 kts 76°
2026-05-04 13:34 35.43866 27.31497 6154 ft 233 kts 76°
2026-05-04 13:35 35.44063 27.33489 5922 ft 238 kts 76°
2026-05-04 13:35 35.44166 27.37496 5217 ft 246 kts 105°
2026-05-04 13:35 35.43098 27.39066 4998 ft 236 kts 151°
2026-05-04 13:36 35.41550 27.39463 4841 ft 230 kts 187°
2026-05-04 13:36 35.39941 27.39256 4627 ft 236 kts 194°
2026-05-04 13:36 35.38308 27.38879 4397 ft 239 kts 199°
2026-05-04 13:36 35.36704 27.38364 4163 ft 232 kts 204°
2026-05-04 13:37 35.35218 27.37739 3946 ft 225 kts 208°
2026-05-04 13:37 35.33774 27.36979 3738 ft 223 kts 214°
2026-05-04 13:37 35.32410 27.36075 3467 ft 222 kts 224°
2026-05-04 13:37 35.31730 27.35187 3177 ft 206 kts 254°
2026-05-04 13:38 35.31793 27.33210 3004 ft 170 kts 303°
2026-05-04 13:38 35.32392 27.31957 2831 ft 173 kts 306°
2026-05-04 13:38 35.33044 27.30691 2652 ft 176 kts 307°
2026-05-04 13:38 35.33733 27.29433 2472 ft 179 kts 308°
2026-05-04 13:39 35.34428 27.28185 2296 ft 174 kts 308°
2026-05-04 13:39 35.35099 27.26977 2126 ft 167 kts 309°
2026-05-04 13:39 35.35743 27.25829 1967 ft 160 kts 308°
2026-05-04 13:39 35.36356 27.24742 1811 ft 151 kts 308°
2026-05-04 13:40 35.36917 27.23743 1697 ft 138 kts 309°
2026-05-04 13:40 35.37439 27.22825 1540 ft 122 kts 309°
2026-05-04 13:40 35.37900 27.22028 1374 ft 109 kts 310°
2026-05-04 13:40 35.38334 27.21305 1215 ft 100 kts 309°
2026-05-04 13:41 35.38736 27.20603 1046 ft 99 kts 305°
2026-05-04 13:41 35.39109 27.19883 849 ft 103 kts 307°
2026-05-04 13:41 35.39532 27.19151 718 ft 108 kts 306°
2026-05-04 13:42 35.40342 27.17722 487 ft 104 kts 303°
2026-05-04 13:42 35.40753 27.16985 335 ft 105 kts 303°
2026-05-04 13:42 35.41173 27.16236 194 ft 106 kts 302°
2026-05-04 13:42 35.41574 27.15532 70 ft 102 kts 301°
2026-05-04 13:43 35.41943 27.14876 38 ft 72 kts 304°
2026-05-04 13:43 35.42152 27.14501 30 ft 39 kts 306°
2026-05-04 13:43 35.42294 27.14251 30 ft 32 kts 300°
2026-05-04 13:43 35.42401 27.14059 32 ft 18 kts 305°
2026-05-04 13:44 35.42468 27.14056 35 ft 15 kts 58°
2026-05-04 13:44 35.42529 27.14180 37 ft 17 kts 57°
2026-05-04 13:44 35.42600 27.14318 40 ft 20 kts 60°
2026-05-04 13:44 35.42672 27.14469 40 ft 20 kts 57°
2026-05-04 13:45 35.42641 27.14605 36 ft 18 kts 134°
2026-05-04 13:45 35.42536 27.14738 32 ft 24 kts 135°
2026-05-04 13:45 35.42502 27.14846 30 ft 11 kts 15°
2026-05-04 13:45 35.42559 27.14897 30 ft 9 kts 40°
2026-05-04 13:46 35.42600 27.14880 31 ft 6 kts 313°
2026-05-04 13:46 35.42631 27.14841 32 ft 0 kts 314°